Regional Weather Roundup
Issued by NWS

Home | Current Version | Previous Version | Graphics & Text | Print | Product List | Glossary On
Versions: 1 2 3 4 5 6 7 8 9 10 11 12 13 14 15 16 17 18 19 20 21 22 23 24 25 26 27 28 29 30 31 32 33 34 35 36 37 38 39 40 41 42 43 44 45 46 47 48 49 50
000
ASUS45 KSLC 010310
RWRUT

UTAH REGIONAL WEATHER ROUNDUP
NATIONAL WEATHER SERVICE SALT LAKE CITY UT
900 PM MDT FRI JUL 31 2015

UTZ001>011-023>025-010400-

NORTHERN UTAH

CITY           SKY/WX    TMP DP  RH WIND       PRES   REMARKS
BRIGHAM CITY   CLEAR     86  33  14 CALM      30.11R
HILL AFB       CLEAR     83  35  17 SW5       30.15S
LOGAN          CLEAR     79  42  26 E3        30.13R
OGDEN          CLEAR     82  31  15 S5        30.12R
PROVO AIRPORT  PTCLDY    77  46  33 NW12      30.13R
SALT LAKE CITY PTCLDY    83  26  12 W6        30.10R
VERNAL         PTCLDY    77  41  27 W3        30.14R
WENDOVER       PTCLDY    86  30  13 NE3       30.11R
HEBER CITY     PTCLDY    68  39  34 SE3       30.21R HAZE
WEST JORDAN    CLEAR     82  30  15 CALM      30.15R

$$

UTZ012>022-026-027-010400-

SOUTHERN/CENTRAL UTAH

CITY           SKY/WX    TMP DP  RH WIND       PRES   REMARKS
BLANDING       CLOUDY    74  51  45 CALM      30.36R
BRYCE CANYON   MOCLDY    63  44  50 CALM      30.39R
CEDAR CITY     CLOUDY    80  47  31 S17G24    30.21R
DELTA          PTCLDY    87  17   7 N9        30.13R
HANKSVILLE     PTCLDY    88  36  15 SW3       30.09R
MILFORD        PTCLDY    85  24  11 N7        30.12R
MOAB/CYNLANDS  CLEAR     84  32  15 S3        30.07R
PRICE          PTCLDY    83  15   8 NW10      30.21R
ST GEORGE      PTCLDY    90  52  27 NE3       30.04S
KANAB          CLOUDY    75  52  43 CALM      30.25R

$$

REGIONAL REPORTS     COLORADO/ARIZONA

CITY           SKY/WX    TMP DP  RH WIND       PRES   REMARKS
CRAIG, CO      CLEAR     66  31  27 S3        30.22R
GRAND JUNCTION PTCLDY    81  38  21 E9        30.10R
RIFLE          PTCLDY    81  41  24 NW8       30.16R
MONTROSE       CLOUDY    76  46  34 SE13      30.26R
CORTEZ         MOCLDY    65  63  93 S5        30.29R
PAGE, AZ       CLOUDY    89  46  22 SW5       30.10R
GRAND CANYON   CLOUDY    66  51  58 CALM      30.35R
KINGMAN        CLOUDY    86  53  32 E17       30.10R
FLAGSTAFF      CLOUDY    65  56  72 CALM      30.38R

$$

REGIONAL REPORTS    NEVADA/IDAHO/WYOMING

CITY           SKY/WX    TMP DP  RH WIND       PRES   REMARKS
LAS VEGAS, NV  CLOUDY    97  53  22 SW12      29.89R HX  94
ELY            CLOUDY    79  23  12 W6        30.24S
ELKO           CLEAR     87  18   8 N10       30.17R
POCATELLO, ID  CLEAR     80  37  21 CALM      30.15S
BURLEY         CLEAR     76  40  27 W3        30.11R
EVANSTON, WY   CLEAR     71  23  16 N9        30.35R
ROCK SPRINGS   PTCLDY    75  19  12 NW10      30.28R
KEMMERER       PTCLDY    70  27  19 NW9       30.36R

$$


USA.gov is the U.S. government's official web portal to all federal, state and local government web resources and services.